Regional Weather Roundup
Issued by NWS Cleveland, OH

Home | Current Version | Previous Version | Text Only | Print | Product List | Glossary Off
Versions: 1 2 3 4 5 6 7 8 9 10 11 12 13 14 15 16 17 18 19 20 21 22 23 24 25 26 27 28 29 30 31 32 33 34 35 36 37 38 39 40 41 42 43 44 45 46 47 48 49 50

000
ASUS41 KCLE 260910
RWRCLE
OHIO REGIONAL WEATHER ROUNDUP
NATIONAL WEATHER SERVICE WILMINGTON, OH
400 AM EST MON JAN 26 2015

NOTE: "FAIR" INDICATES FEW OR NO CLOUDS BELOW 12,000 FEET WITH NO
SIGNIFICANT WEATHER AND/OR OBSTRUCTIONS TO VISIBILITY.

OHZ001>008-015>018-024>027-034-035-043-044-261000-
   NORTHWEST OHIO

CITY           SKY/WX    TMP DP  RH WIND       PRES   REMARKS
DEFIANCE       PTCLDY    17   6  62 N8        29.92S WCI   7
FINDLAY        LGT SNOW  17  11  77 N14       29.85F WCI   3
TOLEDO EXPRESS MOCLDY    16   5  62 N10       29.91S WCI   4
TOLEDO EXEC    MOCLDY    16   5  62 NE10G21   29.92S WCI   4
LIMA           LGT SNOW  16  11  80 N13       29.84S WCI   2
$$

OHZ009>014-019>023-028>033-038-089-261000-
   NORTHEAST OHIO

CITY           SKY/WX    TMP DP  RH WIND       PRES   REMARKS
CLE-HOPKINS    LGT SNOW  19  14  81 NE16      29.85F WCI   4
CLE-LAKEFRONT  LGT SNOW  20  13  74 NE12      29.84F WCI   8
CUY CO. ARPT   NOT AVBL
LORAIN-ELYRIA  LGT SNOW  18  14  84 NE16      29.84F FOG     WCI   3
ASHTABULA      CLOUDY    16   8  71 NE7       29.83F WCI   6
AKRON-CANTON   LGT SNOW  20  15  81 N13       29.75F VSB 1   WCI   7
WOOSTER        LGT SNOW  19  16  88 N9        29.77F FOG     WCI   8
MANSFIELD      LGT SNOW  18  16  92 N10       29.77F FOG     WCI   6
YOUNGSTOWN     LGT SNOW  18  15  88 N13       29.76F FOG     WCI   5
$$

OHZ042-051>053-060>062-070>072-077>081-261000-
  SOUTHWEST OHIO

CITY           SKY/WX    TMP DP  RH WIND       PRES   REMARKS
CINC-COVINGTON CLOUDY    25  19  80 N20       29.77R FOG     WCI  11
CINC-LUNKEN    LGT SNOW  24  22  91 N10       29.80R FOG     WCI  14
HAMILTON       CLOUDY    23  19  85 N7G20     29.81R WCI  15
DAYTON         CLOUDY    19  15  84 N17       29.79S WCI   4
WRIGHT-PAT AFB LGT SNOW  21  18  87 N13       29.79R FOG     WCI   9
DAYTON GENERAL LGT SNOW  21  18  88 N14G23    29.76S FOG     WCI   8
WILMINGTON     LGT SNOW  21  17  84 N20       29.73S FOG     WCI   6
$$

OHZ036-037-039>041-045>050-054>059-063>069-073>076-082>088-261000-
  CENTRAL AND SOUTHEAST OHIO

CITY           SKY/WX    TMP DP  RH WIND       PRES   REMARKS
COLUMBUS       LGT SNOW  22  19  89 N10       29.74F VSB 3/4 WCI  11
OSU AIRPORT    LGT SNOW  21  17  84 N15       29.75S FOG     WCI   8
BOLTON FIELD     N/A     22  20  91 N15       29.74F WCI   9
RICKENBACK AFB LGT SNOW  24  22  92 N13       29.73S WCI  12
NEWARK         LGT SNOW  24  21  88 N6        29.73S VSB 1   WCI  17
MARION         LGT SNOW  19  15  84 NE21      29.79F FOG     WCI   3
LANCASTER      LGT SNOW  26  23  88 N8        29.72S FOG     WCI  18
ZANESVILLE     LGT SNOW  24  21  88 NE9       29.71F FOG     WCI  14
NEW PHILLY     LGT SNOW  22  17  81 N9        29.75F WCI  12
$$



USA.gov is the U.S. government's official web portal to all federal, state and local government web resources and services.